LA4GY-1 Weather Reports


Display with metric or nautical units.
time (UTC)temp
F
wind
direction
speed
MPH
gust
MPH
rain 1hr
in
rain 24hr
in
rain mn
in
humidity
%
barometer
mb
20260903021436 52 225 0.0 0.0 0.01 0.05 0.02 93 1000.2
20260903020436 52 225 0.0 0.0 0.01 0.05 0.02 93 1000.2
20260903015436 52 224 0.0 0.0 0.00 0.04 0.01 93 1000.2
20260903014436 52 224 0.0 0.0 0.00 0.04 0.01 93 1000.2
20260903013436 52 225 0.0 0.0 0.00 0.04 0.01 93 1000.3
20260903012436 52 225 0.0 0.0 0.00 0.04 0.01 93 1000.3
20260903011436 52 225 0.0 0.0 0.00 0.04 0.01 93 1000.4
20260903010436 52 225 0.0 0.0 0.00 0.04 0.01 93 1000.4
20260903005436 52 225 0.0 0.0 0.00 0.04 0.01 93 1000.5
20260903004436 52 224 0.0 0.0 0.00 0.04 0.01 93 1000.5
20260903003436 52 224 0.0 0.0 0.00 0.04 0.01 93 1000.5
20260903002436 52 225 0.0 0.0 0.00 0.04 0.01 93 1000.6
20260903001436 52 224 0.0 0.0 0.00 0.04 0.01 93 1000.5
20260903000435 52 225 0.0 0.0 0.00 0.04 0.01 93 1000.5
20260902235435 52 225 0.0 0.0 0.00 0.04 0.01 93 1000.5
20260902234405 52 225 0.0 0.0 0.00 0.04 0.01 93 1000.7
20260902233335 51 225 0.0 0.0 0.00 0.04 0.01 93 1000.7
20260902232335 52 224 0.0 0.0 0.00 0.04 0.01 92 1000.9
20260902231335 52 225 0.0 0.0 0.01 0.04 0.01 92 1000.9
20260902230335 52 225 0.0 0.0 0.01 0.04 0.01 92 1000.8
20260902225306 52 225 0.0 0.0 0.00 0.04 0.01 92 1000.9
20260902224305 53 225 0.0 0.0 0.00 0.04 0.01 92 1000.9
20260902223305 53 225 0.0 0.0 0.00 0.04 0.01 92 1001.0
20260902222306 52 218 0.0 0.0 0.00 0.04 0.01 92 1001.2
20260902221305 52 218 0.0 0.0 0.00 0.03 0.00 92 1001.1
20260902220305 52 218 0.0 0.0 0.00 0.03 0.00 92 1001.3
20260902215235 52 217 0.0 0.0 0.01 0.03 0.03 92 1001.4
20260902214235 52 217 0.0 0.0 0.02 0.03 0.03 92 1001.5
20260902213235 53 217 0.0 0.0 0.02 0.03 0.03 92 1001.4
20260902212235 53 217 0.0 0.0 0.02 0.03 0.03 92 1001.4
20260902211205 53 217 0.0 0.0 0.03 0.03 0.03 91 1001.3
20260902210205 53 217 0.0 0.0 0.03 0.03 0.03 91 1001.3
20260902205205 53 217 0.0 0.0 0.02 0.02 0.02 91 1001.3
20260902204205 53 217 0.0 0.0 0.02 0.02 0.02 91 1001.3
20260902203205 53 217 0.0 0.0 0.02 0.02 0.02 90 1001.4
20260902202205 54 217 0.0 0.0 0.01 0.01 0.01 90 1001.5
20260902201204 54 217 0.0 0.0 0.00 0.00 0.00 89 1001.6
20260902200204 54 211 0.0 0.0 0.00 0.00 0.00 89 1001.7
20260902195204 54 211 0.0 0.0 0.00 0.00 0.00 88 1001.7
20260902194204 54 211 0.0 0.0 0.00 0.00 0.00 88 1001.6
20260902193204 54 211 0.0 0.0 0.00 0.00 0.00 89 1001.7
20260902192204 54 211 0.0 0.0 0.00 0.00 0.00 88 1001.7
20260902191204 54 209 0.0 0.0 0.00 0.00 0.00 88 1001.6
20260902190204 54 207 0.0 0.0 0.00 0.00 0.00 89 1001.8
20260902185205 54 210 0.0 0.0 0.00 0.00 0.00 89 1001.7
20260902184204 54 113 0.0 0.0 0.00 0.00 0.00 88 1001.7
20260902183204 54 111 0.0 0.0 0.00 0.00 0.00 87 1001.7
20260902182203 55 111 0.0 0.0 0.00 0.00 0.00 87 1001.7
20260902181203 55 111 0.0 0.0 0.00 0.00 0.00 86 1001.6
20260902180203 55 111 0.0 0.0 0.00 0.00 0.00 84 1001.7
20260902175203 56 111 0.0 0.0 0.00 0.00 0.00 84 1001.7
20260902174203 56 111 0.0 0.0 0.00 0.00 0.00 84 1001.7
20260902173203 57 111 0.0 0.0 0.00 0.00 0.00 82 1001.7
20260902172203 58 111 0.0 0.0 0.00 0.00 0.00 82 1001.8
20260902171203 58 111 0.0 0.0 0.00 0.00 0.00 82 1001.8
20260902170203 59 111 0.0 0.0 0.00 0.00 0.00 82 1001.8
20260902165203 59 111 0.0 0.0 0.00 0.00 0.00 81 1001.8
20260902164203 59 111 0.0 0.0 0.00 0.00 0.00 80 1001.8
20260902163203 59 111 0.0 0.0 0.00 0.00 0.00 82 1001.8
20260902162203 59 111 0.0 0.0 0.00 0.00 0.00 80 1001.7
20260902161203 59 111 0.0 0.0 0.00 0.00 0.00 80 1001.7
20260902160203 59 111 0.0 0.0 0.00 0.00 0.00 80 1001.7
20260902155203 59 111 0.0 0.0 0.00 0.00 0.00 80 1001.7
20260902154202 59 111 0.0 0.0 0.00 0.00 0.00 79 1001.8
20260902153202 59 111 0.0 0.0 0.00 0.00 0.00 80 1001.8
20260902152202 59 111 0.0 0.0 0.00 0.00 0.00 78 1001.8
20260902151202 59 111 0.0 0.0 0.00 0.00 0.00 78 1001.8
20260902150202 59 111 0.0 0.0 0.00 0.00 0.00 77 1001.9
20260902145202 59 118 0.0 0.0 0.00 0.00 0.00 76 1001.8
20260902144202 59 118 0.0 0.0 0.00 0.00 0.00 76 1001.9
20260902143202 59 118 0.0 0.0 0.00 0.00 0.00 74 1002.1
20260902142202 59 119 0.0 0.0 0.00 0.00 0.00 73 1002.1
20260902141202 59 119 0.0 0.0 0.00 0.00 0.00 70 1002.1
20260902140202 59 157 0.0 0.0 0.00 0.00 0.00 70 1002.1
20260902135202 59 157 0.0 0.0 0.00 0.00 0.00 69 1002.2
20260902134202 60 157 0.0 0.0 0.00 0.00 0.00 73 1002.2
20260902133202 60 157 0.0 0.0 0.00 0.00 0.00 73 1002.3
20260902132202 60 157 0.0 0.0 0.00 0.00 0.00 69 1002.3
20260902131201 60 157 0.0 0.0 0.00 0.00 0.00 70 1002.4
20260902130201 60 157 0.0 0.0 0.00 0.00 0.00 69 1002.4
20260902125201 60 157 0.0 0.0 0.00 0.00 0.00 70 1002.4
20260902124201 61 157 0.0 0.0 0.00 0.00 0.00 70 1002.4
20260902123201 61 157 0.0 0.0 0.00 0.00 0.00 69 1002.4
20260902122201 61 157 0.0 0.0 0.00 0.00 0.00 69 1002.4
20260902121201 61 157 0.0 0.0 0.00 0.00 0.00 69 1002.5
20260902120201 61 157 0.0 0.0 0.00 0.00 0.00 69 1002.6
20260902115201 61 157 0.0 0.0 0.00 0.00 0.00 70 1002.7
20260902114201 60 133 0.0 0.0 0.00 0.00 0.00 72 1002.7
20260902113201 60 110 0.0 0.0 0.00 0.00 0.00 70 1002.7
20260902112201 60 113 0.0 0.0 0.00 0.00 0.00 70 1002.8
20260902111201 60 154 0.0 0.0 0.00 0.00 0.00 72 1002.8
20260902110200 59 154 0.0 0.0 0.00 0.00 0.00 72 1002.9
20260902105201 58 150 0.0 0.0 0.00 0.00 0.00 75 1003.0
20260902104200 57 150 0.0 0.0 0.00 0.00 0.00 75 1003.1
20260902103200 57 150 0.0 0.0 0.00 0.00 0.00 76 1003.1
20260902102200 56 150 0.0 0.0 0.00 0.00 0.00 77 1003.2
20260902101200 55 148 0.0 0.0 0.00 0.00 0.00 78 1003.3
20260902100200 55 148 0.0 0.0 0.00 0.00 0.00 80 1003.4
20260902095200 54 148 0.0 0.0 0.00 0.00 0.00 80 1003.4
20260902094200 54 148 0.0 0.0 0.00 0.00 0.00 82 1003.5
20260902093200 54 148 0.0 0.0 0.00 0.00 0.00 82 1003.6
20260902092200 53 122 0.0 0.0 0.00 0.00 0.00 84 1003.6
20260902091200 53 117 0.0 0.0 0.00 0.00 0.00 83 1003.6
20260902090200 53 105 0.0 0.0 0.00 0.00 0.00 82 1003.6
20260902085200 53 106 0.0 0.0 0.00 0.00 0.00 83 1003.5
20260902084159 52 131 0.0 0.0 0.00 0.00 0.00 84 1003.7
20260902083159 52 119 0.0 0.0 0.00 0.00 0.00 85 1003.6
20260902082159 52 120 0.0 0.0 0.00 0.00 0.00 85 1003.7
20260902081159 52 109 0.0 0.0 0.00 0.00 0.00 84 1003.8
20260902080129 52 109 0.0 0.0 0.00 0.00 0.00 86 1003.8
20260902075129 51 110 0.0 0.0 0.00 0.00 0.00 85 1003.7
20260902074059 51 103 0.0 0.0 0.00 0.00 0.00 86 1003.6
20260902073059 51 351 0.0 0.0 0.00 0.00 0.00 86 1003.8
20260902072059 50 62 0.0 0.0 0.00 0.00 0.00 86 1003.8
20260902071059 50 50 0.0 0.0 0.00 0.00 0.00 87 1003.7
20260902070059 50 304 0.0 0.0 0.00 0.00 0.00 88 1003.8
20260902065059 49 96 0.0 0.0 0.00 0.00 0.00 89 1003.9
20260902064059 49 89 0.0 0.0 0.00 0.00 0.00 89 1003.8
20260902063059 48 80 0.0 0.0 0.00 0.00 0.00 89 1004.0
20260902062059 48 86 0.0 0.0 0.00 0.00 0.00 89 1004.0
20260902061058 48 42 0.0 0.0 0.00 0.00 0.00 90 1004.0
20260902060058 48 13 0.0 0.0 0.00 0.00 0.00 91 1004.0
20260902055058 47 63 0.0 0.0 0.00 0.00 0.00 91 1004.2
20260902054058 47 14 0.0 0.0 0.00 0.00 0.00 92 1004.2
20260902053058 47 33 0.0 0.0 0.00 0.00 0.00 92 1004.2
20260902052058 46 328 0.0 0.0 0.00 0.00 0.00 92 1004.4
20260902051058 46 322 0.0 0.0 0.00 0.00 0.00 93 1004.5
20260902050058 46 319 0.0 0.0 0.00 0.00 0.00 93 1004.4
20260902045058 45 323 0.0 0.0 0.00 0.00 0.00 93 1004.5
20260902044058 45 300 0.0 0.0 0.00 0.00 0.00 93 1004.5
20260902043058 44 299 0.0 0.0 0.00 0.00 0.00 93 1004.6
20260902042028 44 295 0.0 0.0 0.00 0.00 0.00 93 1004.7
20260902041028 44 332 0.0 0.0 0.00 0.00 0.00 93 1004.7
20260902040028 44 313 0.0 0.0 0.00 0.00 0.00 92 1004.7
20260902035028 44 325 0.0 0.0 0.00 0.00 0.00 92 1004.8
20260902033958 44 321 0.0 0.0 0.00 0.01 0.00 92 1005.0
20260902032957 44 322 0.0 0.0 0.00 0.01 0.00 92 1005.0
20260902031957 44 326 0.0 0.0 0.00 0.01 0.00 93 1005.0
20260902030957 44 335 0.0 0.0 0.00 0.01 0.00 93 1005.1
20260902025957 44 335 0.0 0.0 0.00 0.01 0.00 92 1005.2
20260902024957 44 321 0.0 0.0 0.00 0.01 0.00 92 1005.4
20260902023957 45 317 0.0 0.0 0.00 0.01 0.00 92 1005.4
20260902022957 45 332 0.0 0.0 0.00 0.02 0.00 92 1005.5
20260902021957 45 344 0.0 0.0 0.00 0.02 0.00 92 1005.5